FW4758 Weather Reports


Display with metric or nautical units.
time (UTC)temp
F
wind
direction
speed
MPH
gust
MPH
rain 1hr
in
rain 24hr
in
rain mn
in
humidity
%
barometer
mb
20260509004503 71 134 3.0 4.0 0.00 0.13 0.13 83 1007.0
20260509003001 72 157 2.0 4.0 0.00 0.13 0.13 83 1007.1
20260509001502 72 134 2.0 3.0 0.00 0.13 0.13 82 1007.4
20260509000001 72 142 2.0 4.0 0.00 0.13 0.13 83 1007.5
20260508234600 72 178 1.0 5.0 0.00 0.13 0.13 83 1007.5
20260508233132 72 159 2.0 4.0 0.00 0.13 0.13 82 1007.4
20260508231559 72 150 2.0 6.0 0.00 0.13 0.13 82 1007.4
20260508230100 72 167 4.0 7.0 0.00 0.13 0.13 82 1007.5
20260508224618 72 121 4.0 8.0 0.00 0.13 0.13 82 1007.5
20260508223057 72 92 5.0 10.0 0.00 0.13 0.13 82 1007.5
20260508221554 71 125 5.0 9.0 0.00 0.13 0.13 83 1007.6
20260508220055 70 126 6.0 10.0 0.00 0.13 0.13 83 1007.8
20260508214549 69 123 8.0 11.0 0.00 0.13 0.13 84 1008.0
20260508213049 68 117 3.0 6.0 0.00 0.13 0.13 84 1008.3
20260508211547 67 163 2.0 4.0 0.05 0.13 0.13 84 1008.7
20260508210048 66 146 2.0 4.0 0.05 0.13 0.13 84 1008.9
20260508204550 66 178 3.0 7.0 0.09 0.13 0.13 84 1009.1
20260508203053 65 267 1.0 4.0 0.13 0.13 0.13 84 1009.5
20260508201545 65 167 3.0 7.0 0.08 0.08 0.08 84 1009.2
20260508200051 65 92 9.0 13.0 0.08 0.08 0.08 84 1008.0
20260508194542 68 114 5.0 8.0 0.04 0.04 0.04 81 1009.6
20260508193043 68 167 3.0 8.0 0.00 0.00 0.00 78 1010.6
20260508191549 70 139 4.0 10.0 0.00 0.00 0.00 75 1010.5
20260508190040 69 143 9.0 12.0 0.00 0.00 0.00 76 1010.2
20260508184537 69 150 7.0 14.0 0.00 0.00 0.00 75 1010.5
20260508183034 69 157 7.0 12.0 0.00 0.00 0.00 75 1010.8
20260508181536 69 165 7.0 10.0 0.00 0.00 0.00 74 1011.1
20260508180032 70 134 6.0 10.0 0.00 0.00 0.00 73 1011.3
20260508174531 69 159 6.0 10.0 0.00 0.00 0.00 72 1011.1
20260508173028 70 132 7.0 11.0 0.00 0.00 0.00 73 1011.4
20260508171527 68 139 4.0 8.0 0.00 0.00 0.00 75 1011.7
20260508170021 68 187 5.0 8.0 0.00 0.00 0.00 76 1012.2
20260508164520 68 157 5.0 9.0 0.00 0.00 0.00 75 1012.2
20260508163018 67 102 5.0 9.0 0.00 0.00 0.00 75 1012.2
20260508161515 66 94 8.0 11.0 0.00 0.00 0.00 77 1012.3
20260508160015 65 109 8.0 13.0 0.00 0.00 0.00 78 1012.8
20260508154506 64 114 6.0 9.0 0.00 0.00 0.00 80 1013.0
20260508153005 63 125 5.0 10.0 0.00 0.00 0.00 80 1013.0
20260508151504 63 124 5.0 7.0 0.00 0.00 0.00 80 1013.4
20260508150005 63 133 2.0 7.0 0.00 0.00 0.00 79 1013.5
20260508144503 63 166 4.0 7.0 0.00 0.00 0.00 78 1013.6
20260508143002 63 94 4.0 7.0 0.00 0.00 0.00 78 1013.4
20260508141505 63 97 3.0 6.0 0.00 0.00 0.00 79 1013.4
20260508140116 63 122 3.0 5.0 0.00 0.00 0.00 79 1013.6
20260508134558 63 148 3.0 6.0 0.00 0.00 0.00 80 1013.6
20260508133100 62 127 4.0 7.0 0.00 0.00 0.00 82 1013.5
20260508131557 61 119 2.0 6.0 0.00 0.00 0.00 84 1013.5
20260508130103 60 91 2.0 6.0 0.00 0.00 0.00 84 1013.5
20260508124551 59 53 1.0 3.0 0.00 0.00 0.00 85 1013.8
20260508123056 57 171 0.0 0.0 0.00 0.00 0.00 85 1013.8
20260508121547 56 171 0.0 0.0 0.00 0.00 0.00 85 1013.5
20260508120049 56 171 0.0 2.0 0.00 0.00 0.00 85 1013.6
20260508114551 56 209 0.0 2.0 0.00 0.00 0.00 85 1013.5
20260508113046 56 173 2.0 5.0 0.00 0.00 0.00 85 1013.5
20260508111550 56 230 0.0 2.0 0.00 0.00 0.00 85 1013.7
20260508110044 56 32 0.0 2.0 0.00 0.00 0.00 85 1013.9
20260508104547 56 142 0.0 3.0 0.00 0.00 0.00 85 1013.4
20260508103046 57 215 0.0 4.0 0.00 0.00 0.00 85 1013.4
20260508101546 57 205 2.0 5.0 0.00 0.00 0.00 85 1013.3
20260508100040 57 170 0.0 0.0 0.00 0.00 0.00 85 1013.3
20260508094546 57 170 0.0 2.0 0.00 0.00 0.00 85 1013.2
20260508093042 57 138 0.0 3.0 0.00 0.00 0.00 85 1013.2
20260508091547 58 150 1.0 3.0 0.00 0.00 0.00 85 1013.2
20260508090051 58 116 0.0 0.0 0.00 0.00 0.00 85 1013.4
20260508084535 58 116 0.0 0.0 0.00 0.00 0.00 85 1013.3
20260508083033 58 116 1.0 2.0 0.00 0.00 0.00 85 1013.4
20260508081538 58 116 1.0 3.0 0.00 0.00 0.00 84 1013.4
20260508080029 59 285 0.0 0.0 0.00 0.00 0.00 84 1013.8
20260508074525 59 285 0.0 0.0 0.00 0.00 0.00 84 1014.3
20260508073026 59 285 0.0 0.0 0.00 0.00 0.00 84 1014.6
20260508071526 59 285 0.0 2.0 0.00 0.00 0.00 84 1014.6
20260508070036 59 207 0.0 2.0 0.00 0.00 0.00 83 1014.4
20260508064530 59 167 0.0 0.0 0.00 0.00 0.00 83 1014.4
20260508063022 59 167 0.0 0.0 0.00 0.00 0.00 83 1014.5
20260508061523 59 171 1.0 3.0 0.00 0.00 0.00 84 1014.5
20260508060024 59 219 0.0 0.0 0.00 0.00 0.00 84 1014.6
20260508054527 58 219 0.0 0.0 0.00 0.00 0.00 84 1014.8
20260508053016 59 219 0.0 3.0 0.00 0.00 0.00 84 1015.0
20260508051514 59 214 1.0 3.0 0.00 0.00 0.00 83 1015.2
20260508050013 59 193 1.0 4.0 0.00 0.00 0.00 82 1015.1
20260508044512 59 153 0.0 0.0 0.00 0.00 0.00 80 1015.0
20260508043015 60 153 0.0 2.0 0.00 0.00 0.00 80 1014.8
20260508041511 60 144 1.0 3.0 0.00 0.00 0.00 79 1014.7
20260508040019 60 161 1.0 3.0 0.00 0.00 0.00 79 1015.1
20260508034510 60 142 0.0 0.0 0.00 0.00 0.00 80 1014.7
20260508033009 60 142 0.0 3.0 0.00 0.00 0.00 80 1014.6
20260508031510 60 120 0.0 0.0 0.00 0.00 0.00 80 1014.6
20260508030012 61 120 0.0 1.0 0.00 0.00 0.00 79 1014.1
20260508024512 61 120 0.0 1.0 0.00 0.00 0.00 79 1014.1
20260508023008 61 122 0.0 3.0 0.00 0.00 0.00 79 1014.1
20260508021511 62 109 2.0 4.0 0.00 0.00 0.00 78 1014.0
20260508020010 62 140 2.0 4.0 0.00 0.00 0.00 77 1014.0
20260508014506 62 122 1.0 3.0 0.00 0.00 0.00 77 1014.0
20260508013007 63 157 1.0 2.0 0.00 0.00 0.00 76 1014.0
20260508011512 63 178 1.0 3.0 0.00 0.00 0.00 75 1014.1
20260508010006 63 167 0.0 2.0 0.00 0.00 0.00 74 1013.9